This is the latest recevied weather packets stored in our database for station/object MIDVIL-WX. If no packets are shown the sender has not sent any weather packets the latest 10 day(s).
| Time | Temp. | Humidity | Pressure | Rain* | Wind** | Luminosity | Snow |
|---|---|---|---|---|---|---|---|
| 1777693525 | 1.67° C | 65% | 990.6 hPa | 0 mm | - | - | - |
| 1777692645 | 1.67° C | 69% | 990.1 hPa | 0 mm | - | - | - |
| 1777691725 | 1.67° C | 69% | 990.1 hPa | 0 mm | - | - | - |
| 1777690852 | 1.67° C | 69% | 990.1 hPa | 0 mm | - | - | - |
| 1777689925 | 2.22° C | 62% | 989.6 hPa | 0 mm | - | - | - |
| 1777689043 | 2.22° C | 67% | 990.6 hPa | 0 mm | - | - | - |
| 1777688125 | 2.22° C | 67% | 990.6 hPa | 0 mm | - | - | - |
| 1777687249 | 2.78° C | 67% | 990.6 hPa | 0 mm | - | - | - |
| 1777686325 | 2.78° C | 63% | 990.8 hPa | 0 mm | - | - | - |
| 1777685441 | 3.33° C | 63% | 990.8 hPa | 0 mm | - | - | - |
| 1777684524 | 2.78° C | 63% | 990.7 hPa | 0 mm | - | - | - |
| 1777683645 | 2.78° C | 63% | 990.7 hPa | 0 mm | - | - | - |
| 1777682724 | 3.33° C | 56% | 991.1 hPa | 0 mm | - | - | - |
| 1777681842 | 3.89° C | 59% | 991.6 hPa | 0 mm | - | - | - |
| 1777680925 | 4.44° C | 59% | 991.6 hPa | 0 mm | - | - | - |
| 1777680055 | 5° C | 59% | 991.6 hPa | 0 mm | - | - | - |
| 1777679125 | 5.56° C | 55% | 989.9 hPa | 0 mm | - | - | - |
| 1777678238 | 5.56° C | 56% | 991 hPa | 0 mm | - | - | - |
| 1777677325 | 5.56° C | 56% | 991 hPa | 0 mm | - | - | - |
| 1777676447 | 6.11° C | 56% | 991 hPa | 0 mm | - | - | - |
| 1777675525 | 6.11° C | 59% | 989.8 hPa | 0 mm | - | - | - |
| 1777674644 | 6.67° C | 59% | 990.8 hPa | 0 mm | - | - | - |
| 1777673725 | 6.67° C | 59% | 990.8 hPa | 0 mm | - | - | - |
| 1777672852 | 6.67° C | 59% | 990.8 hPa | 0 mm | - | - | - |
| 1777671925 | 6.11° C | 64% | 990 hPa | 0 mm | - | - | - |
* Rain latest hour (hover to see other rain measurements)
** Current wind speed in m/s (hover to see current wind gust speed)